Fitchburg, MA

10:03 AM EDT on September 15, 2019 (GMT -0400)
Fitchburg Municipal

Weather History for KFIT - May, 2019

Change the Weather History Date:

Thursday, May 16, 2019

  Actual Average (KORH) Record (KORH)
Temperature  
Mean Temperature 56 °F -  
Max Temperature 70 °F 65 °F 89 °F (1932)
Min Temperature 41 °F 46 °F 30 °F (1947)
Degree Days  
Heating Degree Days 10    
Growing Degree Days 6 (Base 50)    
Moisture  
Dew Point 42 °F    
Average Humidity 73    
Maximum Humidity 97    
Minimum Humidity 28    
Precipitation  
Precipitation 0.01 in - - ()
Sea Level Pressure  
Sea Level Pressure 29.82 in    
Wind  
Wind Speed 2 mph (NW)    
Max Wind Speed 14 mph    
Max Gust Speed 21 mph    
Visibility 7 miles    
Events Rain    
Averages and records for this station are not official NWS values.
T = Trace of Precipitation, MM = Missing Value Source: NWS Daily Summary

Daily Weather History Graph

Daily Weather History Graph

Search for Another Location

Airport or City:

Astronomy

May. 16, 2019 Rise Set
Actual Time 5:24 AM EDT 8:03 PM EDT
Civil Twilight 4:51 AM EDT 8:35 PM EDT
Nautical Twilight 4:11 AM EDT 9:16 PM EDT
Astronomical Twilight 3:25 AM EDT 10:02 PM EDT
Moon 5:34 PM EDT (5/16) 4:26 AM EDT (5/16)
Length of Visible Light 15h 43m
Length of Day
14h 38m
Waxing Gibbous, 94% of the Moon is Illuminated
May 16
Waxing Gibbous
May 18
Full
May 26
Last Quarter
Jun 3
New
Jun 10
First Quarter

Hourly Weather History & Observations

Time (EDT) Temp. Windchill Dew Point Humidity Pressure Visibility Wind Dir Wind Speed Gust Speed Precip Events Conditions
12:52 AM 50.0 °F - 46.0 °F 86% 29.81 in 10.0 mi Calm Calm - 0.01 in   Overcast
1:52 AM 48.9 °F - 46.0 °F 90% 29.80 in 10.0 mi Calm Calm - 0.00 in Rain Light Rain
2:52 AM 46.0 °F - 44.1 °F 93% 29.80 in 10.0 mi Calm Calm - 0.00 in   Partly Cloudy
3:12 AM 45.0 °F - 43.0 °F 93% 29.79 in 1.8 mi Calm Calm - N/A   Clear
3:19 AM 45.0 °F - 43.0 °F 93% 29.79 in 0.8 mi Calm Calm - N/A   Mist
3:41 AM 45.0 °F - 43.0 °F 93% 29.79 in 1.2 mi Calm Calm - N/A   Scattered Clouds
3:43 AM 45.0 °F - 43.0 °F 93% 29.79 in 3.0 mi Calm Calm - N/A   Scattered Clouds
3:52 AM 45.0 °F 43.5 °F 43.0 °F 93% 29.80 in 8.0 mi NW 3.5 mph - N/A   Scattered Clouds
3:58 AM 43.0 °F 40.3 °F 42.1 °F 97% 29.79 in 1.5 mi NW 4.6 mph - N/A   Partly Cloudy
4:02 AM 42.1 °F 40.2 °F 41.0 °F 96% 29.79 in 0.8 mi NW 3.5 mph - N/A   Mist
4:08 AM 44.1 °F - 42.1 °F 93% 29.79 in 1.2 mi Calm Calm - N/A   Partly Cloudy
4:12 AM 44.1 °F - 42.1 °F 93% 29.79 in 3.0 mi Calm Calm - N/A   Partly Cloudy
4:32 AM 42.1 °F 40.2 °F 41.0 °F 96% 29.79 in 1.8 mi NW 3.5 mph - N/A   Mostly Cloudy
4:45 AM 44.1 °F 41.5 °F 42.1 °F 93% 29.79 in 3.0 mi NW 4.6 mph - N/A   Scattered Clouds
4:52 AM 42.1 °F 40.2 °F 41.0 °F 96% 29.80 in 4.0 mi NW 3.5 mph - N/A   Partly Cloudy
4:55 AM 41.0 °F 38.0 °F 39.9 °F 96% 29.79 in 1.8 mi WNW 4.6 mph - N/A   Partly Cloudy
5:05 AM 42.1 °F 40.2 °F 41.0 °F 96% 29.79 in 3.0 mi NNW 3.5 mph - N/A   Partly Cloudy
5:52 AM 43.0 °F - 42.1 °F 97% 29.81 in 10.0 mi Calm Calm - N/A   Scattered Clouds
6:52 AM 46.0 °F - 43.0 °F 89% 29.83 in 10.0 mi Calm Calm - N/A   Clear
7:52 AM 54.0 °F - 46.9 °F 77% 29.84 in 10.0 mi Calm Calm - N/A   Clear
8:52 AM 55.9 °F - 45.0 °F 67% 29.85 in 10.0 mi Calm Calm - N/A   Overcast
9:52 AM 60.1 °F - 42.1 °F 51% 29.85 in 10.0 mi North 5.8 mph - N/A   Overcast
10:52 AM 60.1 °F - 43.0 °F 53% 29.84 in 10.0 mi Variable 4.6 mph - N/A   Mostly Cloudy
11:52 AM 64.0 °F - 39.0 °F 40% 29.83 in 10.0 mi WNW 9.2 mph - N/A   Scattered Clouds
12:52 PM 64.0 °F - 37.9 °F 38% 29.83 in 10.0 mi NNW 13.8 mph 20.7 mph N/A   Overcast
1:52 PM 64.9 °F - 37.9 °F 37% 29.81 in 10.0 mi WNW 10.4 mph - N/A   Scattered Clouds
2:52 PM 68.0 °F - 37.9 °F 33% 29.80 in 10.0 mi WNW 6.9 mph - 0.00 in   Partly Cloudy
3:52 PM 70.0 °F - 35.1 °F 28% 29.80 in 10.0 mi NW 12.7 mph 20.7 mph N/A   Partly Cloudy
4:52 PM 68.0 °F - 37.9 °F 33% 29.81 in 10.0 mi WNW 11.5 mph - N/A   Partly Cloudy
5:52 PM 66.0 °F - 37.9 °F 36% 29.83 in 10.0 mi NNW 11.5 mph - N/A   Scattered Clouds
6:52 PM 64.9 °F - 37.9 °F 37% 29.83 in 10.0 mi North 5.8 mph - N/A   Mostly Cloudy
7:52 PM 63.0 °F - 37.9 °F 40% 29.85 in 10.0 mi Calm Calm - N/A   Scattered Clouds
8:52 PM 55.0 °F - 43.0 °F 64% 29.86 in 10.0 mi Calm Calm - N/A   Clear
9:52 PM 53.1 °F - 42.1 °F 66% 29.88 in 10.0 mi Calm Calm - N/A   Clear
10:52 PM 48.9 °F - 42.1 °F 77% 29.89 in 10.0 mi NW 3.5 mph - N/A   Clear
11:52 PM 48.0 °F - 42.1 °F 80% 29.88 in 10.0 mi Calm Calm - N/A   Clear